SCP
0 0 0 0 0 0 0 0 0 0 0 0 0 0 0 0 0 0 0 0 0 1 1 1 2 2 2 2 1 1 1 1 2 2 2 1 1 1 1 1 0 0 1 1 1 1 1 1 1
0 0 0 0 0 0 0 0 0 0 0 0 0 0 0 0 0 0 0 0 0 1 1 1 2 2 2 2 1 1 1 1 2 2 2 1 1 1 1 1 1 0 1 1 1 1 1 1 1
0 0 0 0 0 0 0 0 0 0 0 0 0 0 0 0 0 0 0 0 1 1 1 1 1 2 2 2 1 1 1 1 1 1 2 1 1 1 1 1 1 0 0 1 1 1 1 1 1
0 0 0 0 0 0 0 0 0 0 0 0 0 0 0 0 0 0 0 1 1 1 1 1 1 2 2 2 2 1 1 1 1 1 1 1 1 1 1 1 1 1 1 1 1 1 1 1 1
0 0 0 0 0 0 0 0 0 0 0 0 0 0 0 0 0 0 0 1 1 1 1 1 1 1 2 2 2 1 1 1 1 1 1 1 1 1 1 1 1 1 1 1 1 1 1 1 1
0 0 0 0 0 0 0 0 0 0 0 0 0 0 0 0 0 0 1 1 1 1 1 1 1 1 1 2 2 1 1 1 1 1 1 1 1 2 2 1 1 1 1 1 1 1 1 1 1
0 0 0 0 0 0 0 0 0 0 0 0 0 0 0 0 0 0 1 1 1 1 1 1 1 1 1 1 1 1 1 1 1 1 1 1 1 1 1 1 1 1 1 1 1 1 1 0 0
0 0 0 0 0 0 0 0 0 0 0 0 0 0 0 0 0 0 1 1 1 1 1 1 1 1 1 1 1 1 1 1 1 0 0 0 1 1 1 1 1 1 1 1 1 1 0 0 0
0 0 0 0 0 0 0 0 0 0 0 0 0 0 0 1 1 1 1 1 1 1 1 1 1 1 1 1 1 0 0 0 0 0 0 0 0 0 0 1 1 1 1 1 1 0 0 0 0
0 0 0 0 0 0 0 0 0 0 0 0 0 0 1 1 1 1 1 1 1 1 1 1 1 1 1 1 1 0 0 0 0 0 0 0 0 0 0 0 0 0 0 0 0 0 0 0 0
0 0 0 0 0 0 0 0 0 0 0 0 0 0 1 1 1 1 1 1 1 1 1 1 1 1 1 0 0 0 0 0 0 0 0 0 0 0 0 0 0 0 0 0 0 0 0 0 0
0 0 0 0 0 0 0 0 0 0 0 0 0 0 0 1 1 1 1 1 1 1 1 1 1 1 0 0 0 0 0 0 0 0 0 0 0 0 0 0 0 0 0 0 0 0 0 0 0
0 0 0 0 0 0 0 0 0 0 0 0 0 0 0 1 1 1 1 1 1 1 1 1 1 1 0 0 0 0 0 0 0 0 0 0 0 0 0 0 0 0 0 0 0 0 0 0 0
0 0 0 0 0 0 0 0 0 0 0 0 0 0 0 1 1 1 1 1 2 1 1 1 1 1 0 0 0 0 0 0 0 0 0 0 0 0 0 0 0 0 0 0 0 0 0 0 0
0 0 0 0 0 0 0 0 0 0 0 0 0 0 0 1 1 1 1 1 1 1 1 1 1 1 0 0 0 0 0 0 0 0 0 0 0 0 0 0 0 0 0 0 0 0 0 0 0
0 0 0 0 0 0 0 0 0 0 0 0 0 0 0 0 1 1 1 1 1 1 1 1 1 1 1 0 0 0 0 0 0 0 0 0 0 0 0 0 0 0 0 0 0 0 0 0 0
0 0 0 0 0 0 0 0 0 0 0 0 0 0 0 0 0 1 1 1 1 1 1 1 1 1 1 1 0 0 0 0 0 0 0 0 0 0 0 0 0 0 0 0 0 0 0 0 0
0 0 0 0 0 0 0 0 0 0 0 0 0 0 0 0 0 0 1 1 1 1 1 1 1 1 1 1 0 0 0 0 0 0 0 0 0 0 0 0 0 0 0 0 0 0 0 0 0
0 0 0 0 0 0 0 0 0 0 0 0 0 0 0 0 0 0 1 1 1 1 1 1 1 1 0 0 0 0 0 0 0 0 0 0 0 0 0 0 0 0 0 0 0 0 0 0 0
0 0 0 0 0 0 0 0 0 0 0 0 0 0 0 0 0 0 0 1 1 2 1 1 1 1 0 0 0 0 0 0 0 0 0 0 0 0 0 0 0 0 0 0 0 0 0 0 0
0 0 0 0 0 0 0 0 0 0 0 0 0 0 0 0 0 0 0 1 1 2 2 1 1 1 0 0 0 0 0 0 0 0 0 0 0 0 0 0 0 0 0 0 0 0 0 0 0
0 0 0 0 0 0 0 0 0 0 0 0 0 0 0 0 0 0 0 1 1 2 2 1 1 1 0 0 0 0 0 0 0 0 0 0 0 0 0 0 0 0 0 0 0 0 0 0 0
0 0 0 0 0 0 0 0 0 0 0 0 0 0 0 0 0 0 0 1 1 1 2 1 1 1 1 0 0 0 0 0 0 0 0 0 0 0 0 0 0 0 0 0 0 0 0 0 0
0 0 0 0 0 0 0 0 0 0 0 0 0 0 0 0 0 0 0 0 1 1 2 1 1 1 1 0 0 0 0 0 0 0 0 0 0 0 0 0 0 0 0 0 0 0 0 0 0
0 0 0 0 0 0 0 0 0 0 0 0 0 0 0 0 0 0 0 0 1 1 1 1 1 1 0 0 0 0 0 0 0 0 0 0 0 0 0 0 0 0 0 0 0 0 0 0 0
0 0 0 0 0 0 0 0 0 0 0 0 0 0 0 0 0 0 0 0 0 1 1 1 1 1 0 0 0 0 0 0 0 0 0 0 0 0 0 0 0 0 0 0 0 0 0 0 0
0 0 0 0 0 0 0 0 0 0 0 0 0 0 0 0 0 0 0 0 0 0 1 1 1 1 0 0 0 0 0 0 0 0 0 0 0 0 0 0 0 0 0 0 0 0 0 0 0
0 0 0 0 0 0 0 0 0 0 0 0 0 0 0 0 0 0 0 0 0 0 1 1 1 1 1 0 0 0 0 0 0 0 0 0 0 0 0 0 0 0 0 0 0 0 0 0 0
0 0 0 0 0 0 0 0 0 0 0 0 0 0 0 0 0 0 0 0 0 0 0 1 1 1 1 0 0 0 0 0 0 0 0 0 0 0 0 0 0 0 0 0 0 0 0 0 0
0 0 0 0 0 0 0 0 0 0 0 0 0 0 0 0 0 0 0 0 0 0 0 1 1 1 1 1 0 0 0 0 0 0 0 0 0 0 0 0 0 0 0 0 0 0 0 0 0
Wind_Speed
8 4 2 4 6 4 1 2 1 1 1 1 2 2 3 3 2 2 2 3 4 3 2 1 2 5 6 7 7 7 7 7 8 9 9 9 9 9 9 8 8 9 9 9 9 10 10 10 10
3 2 5 6 5 1 3 2 1 1 0 1 3 3 3 2 2 2 3 4 3 2 2 2 4 6 6 6 7 7 7 7 8 8 9 9 9 9 9 9 9 8 8 9 9 9 9 9 9
2 4 5 5 3 4 3 1 1 1 2 2 2 3 2 1 2 2 3 2 2 3 3 2 4 6 7 6 6 6 7 7 7 8 8 8 9 9 9 9 9 8 8 8 8 8 9 9 9
3 5 6 4 2 3 2 1 0 1 3 3 2 2 1 2 2 2 2 2 3 3 3 3 5 5 6 6 6 6 6 6 6 7 8 8 8 9 8 9 8 8 8 7 8 8 8 8 8
5 5 4 1 3 2 1 1 1 1 1 1 2 1 1 3 3 2 2 2 3 3 3 3 5 6 6 6 6 6 5 6 7 7 7 8 8 8 8 7 7 7 7 7 7 7 7 7 7
5 5 3 2 3 2 2 1 1 1 0 1 2 1 0 2 3 3 2 3 4 4 4 4 5 6 6 6 6 6 5 6 6 6 7 7 8 7 7 7 7 7 6 6 6 7 6 6 6
4 4 3 2 2 2 2 1 1 1 0 1 1 2 1 2 3 3 3 3 4 4 4 4 4 4 6 6 6 6 6 5 6 6 7 7 7 7 7 7 7 7 6 6 6 6 6 6 6
4 4 2 1 2 3 1 1 1 1 1 1 2 3 2 1 2 3 3 4 4 4 4 4 4 4 4 4 6 7 7 7 7 7 7 7 7 7 7 7 7 7 7 7 7 6 6 6 6
3 4 2 3 4 2 1 1 2 2 2 1 1 0 1 2 3 3 3 3 3 3 3 3 3 4 4 4 5 5 6 7 7 6 7 7 4 4 5 6 7 7 7 7 7 6 7 7 7
4 3 4 2 2 1 1 1 1 2 2 1 2 2 2 3 3 3 2 1 1 1 2 2 2 2 3 3 3 3 3 4 4 4 4 4 4 3 4 6 7 7 7 7 7 7 7 6 3
2 3 2 1 0 1 1 1 1 1 2 4 3 2 1 2 2 2 2 2 1 1 1 1 1 2 2 2 2 2 2 3 3 4 4 3 3 3 3 2 3 4 5 4 5 5 3 3 3
2 1 1 1 1 0 1 1 1 2 5 3 3 3 4 4 4 4 4 3 2 1 0 1 1 1 2 2 2 2 2 2 2 3 3 3 2 2 2 2 2 2 2 2 2 2 3 3 3
1 1 1 1 1 0 0 1 2 5 5 2 1 3 4 5 4 3 3 2 2 1 1 1 1 1 1 2 2 2 1 2 2 2 2 3 2 2 2 2 2 1 1 2 2 2 2 2 2
1 0 1 2 2 1 1 3 2 6 2 1 2 3 4 5 5 3 3 3 3 2 2 1 2 2 2 2 2 1 1 2 2 2 2 2 2 2 2 1 1 1 1 1 1 1 1 1 1
1 1 3 2 1 1 0 4 5 5 1 2 3 4 4 4 4 5 4 4 4 3 2 2 2 2 2 2 2 1 1 2 2 1 2 2 2 2 2 1 1 1 1 1 2 2 1 2 2
2 2 3 3 1 1 1 7 5 2 1 4 5 5 5 5 5 4 4 3 3 3 2 2 2 3 2 2 2 1 1 2 1 1 1 2 2 2 2 1 1 1 1 1 2 2 1 1 1
2 1 3 5 1 0 2 8 6 2 3 6 6 6 6 5 5 5 4 4 4 4 3 3 3 3 3 2 2 2 1 1 1 1 1 1 2 2 2 1 1 1 1 1 1 1 1 1 1
3 3 3 5 3 1 5 10 10 5 6 8 7 7 6 7 7 5 4 4 4 3 3 4 4 3 3 2 2 1 1 1 1 1 1 1 1 2 2 1 1 1 1 2 1 1 1 1 1
2 3 5 6 3 3 8 12 13 8 7 9 8 7 8 8 6 4 3 3 3 3 3 4 4 4 3 2 2 2 1 1 0 1 1 1 2 2 2 1 1 1 1 1 1 1 1 1 1
2 3 5 6 3 3 7 12 12 9 8 9 9 9 8 6 4 4 3 3 3 4 4 4 4 4 4 3 2 1 1 1 1 1 1 1 1 1 1 1 1 1 1 1 1 1 1 1 1
3 4 4 5 5 3 5 10 7 6 5 5 6 6 6 7 7 6 5 5 4 5 5 4 4 4 4 3 2 2 2 1 1 0 0 0 1 1 1 1 1 1 1 1 1 0 1 1 0
5 3 3 3 3 5 1 8 9 5 5 6 6 6 6 6 6 5 4 4 5 5 4 4 4 4 4 4 3 3 3 2 2 1 1 0 1 1 1 1 1 1 0 1 1 0 1 2 1
4 0 1 2 3 4 2 5 11 3 5 7 7 6 6 6 5 5 5 5 5 4 4 4 4 3 3 4 4 4 2 2 1 1 1 1 0 0 1 1 1 1 1 1 1 0 1 1 1
1 2 2 2 2 5 5 5 10 5 6 6 5 5 5 4 4 4 3 2 2 3 3 3 4 3 3 4 4 4 4 3 2 2 2 1 0 0 1 1 1 1 1 1 1 1 1 2 2
2 3 3 5 3 7 2 5 11 7 5 5 6 6 4 3 2 2 2 3 3 4 4 4 4 4 4 4 4 4 4 4 4 4 3 2 1 1 2 1 1 1 0 1 1 1 1 2 2
3 5 5 5 5 6 3 8 10 6 4 4 5 5 3 2 2 3 3 4 4 4 5 5 5 4 4 4 4 3 3 3 3 3 3 3 2 2 2 2 1 1 1 1 1 1 2 1 2
4 3 3 3 1 4 7 8 10 5 4 3 3 3 3 3 3 3 3 3 3 3 5 6 5 4 4 4 3 3 3 3 3 2 2 2 2 1 2 2 1 1 1 1 1 1 2 2 2
3 4 3 3 2 6 7 6 6 6 5 4 4 4 4 3 3 3 3 2 2 2 2 3 4 4 4 3 3 3 3 3 3 2 2 2 2 1 2 2 2 1 1 1 1 1 2 2 2
4 3 3 3 3 4 6 8 6 6 4 4 5 4 3 3 3 3 2 2 1 1 1 2 2 3 3 3 3 3 3 3 3 3 3 2 2 2 2 2 2 2 2 2 2 2 2 2 2
4 6 7 5 5 4 5 11 4 4 3 2 4 4 3 3 3 2 2 1 1 1 1 2 3 3 3 3 2 3 3 3 3 3 2 2 2 2 2 2 2 2 2 2 2 3 2 3 3
Wind_Direction
338 351 50 54 57 54 239 262 275 341 345 4 13 57 112 117 145 178 341 3 13 9 359 43 93 131 124 123 121 116 111 107 107 106 105 104 101 98 94 90 89 90 88 85 84 82 81 79 77
332 10 53 60 87 111 265 263 260 306 292 33 29 40 59 45 21 360 341 341 7 18 24 51 86 110 115 119 121 118 116 110 107 105 103 102 101 98 93 89 86 86 87 88 87 86 84 81 77
3 48 74 78 120 185 230 264 243 1 34 48 42 35 54 4 356 330 330 344 16 34 34 50 88 101 105 107 117 120 119 114 108 105 103 102 99 97 92 88 84 82 83 84 86 86 85 82 79
59 48 57 81 183 221 218 275 18 43 27 42 77 40 30 7 332 324 1 29 49 39 32 51 81 92 100 102 103 115 119 119 114 107 102 98 95 93 92 88 83 80 80 81 84 81 82 82 81
57 75 70 51 245 252 265 317 90 81 58 30 83 108 330 354 6 44 55 63 70 47 37 51 81 84 89 92 93 96 108 115 114 108 103 97 93 90 88 88 83 80 76 78 85 82 80 78 77
60 71 99 224 251 275 296 340 83 69 76 37 101 125 219 11 25 25 51 62 65 64 49 52 74 80 85 87 83 81 90 97 107 106 101 95 90 84 81 83 83 79 74 75 81 80 78 76 73
101 104 159 202 249 285 293 15 122 172 248 262 161 135 278 3 14 26 50 68 64 58 53 45 52 63 75 79 77 77 73 78 83 88 93 89 84 80 78 75 76 74 72 72 75 78 75 72 70
114 108 144 212 217 253 317 18 24 92 237 347 111 153 234 286 25 50 65 68 68 57 49 46 48 50 53 59 66 71 70 69 72 72 75 79 77 75 71 65 68 69 67 65 67 72 71 68 64
80 87 194 213 202 233 5 28 360 11 74 21 28 200 253 124 101 78 66 56 55 44 36 42 49 53 55 58 58 62 68 68 68 66 68 65 57 63 61 60 63 64 63 65 63 68 68 65 61
75 150 217 216 186 192 352 349 306 15 4 320 329 359 68 113 120 114 109 114 83 32 21 36 44 57 61 60 59 51 59 62 59 57 55 61 57 55 64 60 57 55 55 60 61 63 62 55 46
104 183 215 270 155 178 250 304 307 159 266 241 235 242 140 134 152 158 168 177 206 184 46 31 45 58 73 73 73 58 57 64 60 61 59 63 63 56 48 50 45 44 48 45 49 48 45 49 49
120 247 225 279 342 332 231 265 313 231 240 268 239 199 178 186 200 198 198 195 196 166 163 37 58 75 78 78 84 80 74 75 69 63 67 73 68 60 52 42 47 48 46 53 50 55 50 52 51
136 247 347 344 360 286 301 255 257 260 264 280 233 185 197 205 219 220 203 195 189 191 216 185 137 135 110 94 85 81 85 92 91 81 67 74 84 76 60 50 42 53 64 65 61 61 58 54 48
186 85 308 302 288 285 241 272 248 257 260 263 222 221 223 218 220 222 204 208 210 214 219 199 177 168 138 127 121 114 108 107 100 95 86 85 91 93 87 68 50 38 67 72 74 68 69 58 56
76 21 327 279 237 233 19 295 235 243 216 266 258 250 250 242 229 223 217 213 211 215 209 195 182 160 151 145 132 119 109 104 97 87 88 85 85 92 89 82 62 30 33 85 79 60 60 59 53
38 32 313 293 248 262 143 266 256 228 212 263 265 261 258 253 242 236 228 224 214 205 205 198 174 162 160 155 144 131 110 110 103 91 85 82 80 89 95 86 56 36 36 62 90 73 55 45 40
31 297 265 294 270 211 205 258 269 247 243 259 260 261 261 264 262 249 231 220 210 202 199 192 175 167 165 156 141 124 116 114 113 102 94 92 90 90 100 99 68 68 63 44 73 66 57 50 24
237 245 258 266 289 261 256 263 273 256 246 255 257 259 258 254 255 253 235 218 206 198 190 185 174 166 155 141 122 108 98 95 98 110 109 105 97 97 105 102 76 83 83 51 41 82 47 46 13
196 223 263 271 282 258 257 268 273 265 250 250 252 249 251 251 254 250 237 215 195 192 187 190 175 168 155 155 164 171 190 178 133 135 122 121 106 104 102 91 84 81 101 94 53 92 78 36 15
198 258 271 288 298 264 279 277 270 251 237 234 238 243 245 252 260 247 237 216 205 200 192 189 182 173 173 171 168 168 155 162 167 137 123 125 120 123 118 111 112 105 99 97 65 66 117 55 37
245 224 242 270 320 307 307 293 269 265 254 251 242 239 241 236 238 238 225 218 210 205 198 192 185 178 177 159 126 99 82 68 94 149 183 139 139 134 129 140 128 127 122 146 104 130 138 153 251
255 235 234 270 309 296 335 295 287 277 281 260 251 244 245 245 236 232 225 221 217 211 196 185 178 177 173 161 158 157 167 189 208 197 204 179 155 165 165 152 155 171 170 169 176 89 189 161 188
223 271 237 265 250 287 260 253 282 300 276 267 255 246 248 244 233 229 224 221 218 202 187 180 172 173 173 172 177 179 185 186 162 150 164 165 172 191 186 170 171 184 204 205 184 143 222 187 182
155 40 24 35 66 272 231 210 276 248 239 264 263 251 248 248 240 237 234 222 216 199 181 172 171 180 181 181 183 187 188 178 169 186 192 198 206 226 215 180 178 197 213 223 217 205 217 212 191
96 83 13 348 335 255 225 226 254 253 244 242 262 269 266 257 246 245 235 222 215 204 192 181 181 192 192 191 196 200 197 190 192 197 198 197 202 225 222 211 206 213 231 252 243 228 223 225 209
195 160 171 217 246 280 269 241 256 263 270 261 260 266 278 289 274 259 241 227 218 210 199 189 195 202 197 198 208 209 204 199 203 202 198 200 208 216 219 211 215 225 220 223 233 257 240 236 228
165 200 180 153 276 280 264 273 292 289 299 293 290 300 298 298 292 279 269 247 228 213 208 199 198 202 203 205 209 210 204 202 203 199 192 194 204 206 197 202 211 229 230 223 226 245 257 247 238
174 153 120 149 211 266 281 269 262 276 283 299 298 302 301 302 299 297 276 256 250 229 215 197 196 199 203 202 206 210 207 204 196 186 191 193 200 196 193 202 206 218 229 225 230 257 260 247 256
155 164 164 168 188 203 272 268 238 245 262 271 281 289 287 287 285 285 289 278 270 260 204 194 199 201 203 204 204 201 201 193 186 189 194 195 192 189 198 207 208 217 227 232 236 249 258 250 265
188 188 166 180 233 215 248 270 281 263 281 279 290 299 297 287 280 277 277 283 280 251 234 213 206 207 211 206 199 199 197 186 190 201 201 189 191 194 199 201 210 227 238 241 238 246 251 245 256